Flag for United Kingdom Weather past 2 weeks in Canterbury, England, United Kingdom

Now
73 °F

Mild.


Feels Like: 75 °F
Forecast: 61 / 75 °F
Wind: 8 mph from Southwest

Location: Manston

Current Time: Jul 2, 2015 at 2:22:15 AM

Latest Report: Jul 2, 2015 at 1:00 AM


Visibility: 18 mi

Pressure: 29.95 "Hg

Humidity: 70%

Dew point: 62 °F

Location of CanterburyLocation

Historic Weather in Canterbury — Graph

°F

Canterbury temperature yesterday

Maximum temperature yesterday: 92 °F (at 3:00 PM)
Minimum temperature yesterday: 66 °F (at 1:00 AM)
Average temperature yesterday: 78 °F

Past Weeks' High & Low Weather Summary

 TemperatureHumidityPressure
High92 °F (Jul 1, 3:00 PM)97% (Jun 21, 2:00 AM)30.30 "Hg (Jun 21, 2:00 AM)
Low50 °F (Jun 24, 4:00 AM)36% (Jul 1, 3:00 PM)29.76 "Hg (Jun 22, 5:00 PM)
Average63 °F69%30.08 "Hg
* Reported Jun 17 1:00 AM — Jul 2 1:00 AM, Canterbury, Weather by CustomWeather, © 2015

Note: Actual official high and low records may vary slightly from our data, if they occured in-between our weather recording intervals... More about our weather records

Advertising

Canterbury weather history for previous 24 hours

 ConditionsComfort  
Time TempWeatherWind HumidityBarometerVisibility
1:00 AM
Thu, Jul 2
73 °FMild.8 mph70%29.95 "Hg18 mi
12:00 AM75 °FMild.12 mph63%29.93 "Hg19 mi
11:00 PM
Wed, Jul 1
77 °FMild.9 mph62%29.91 "Hg19 mi
10:00 PM77 °FWarm.9 mph60%29.90 "Hg22 mi
9:00 PM80 °FWarm.15 mph53%29.86 "Hg22 mi
8:00 PM80 °FWarm.15 mph50%29.86 "Hg19 mi
7:00 PM81 °FWarm.14 mph48%29.86 "Hg22 mi
6:00 PM80 °FWarm.10 mph50%29.87 "Hg19 mi
5:00 PM81 °FWarm.12 mph51%29.88 "Hg22 mi
4:00 PM90 °FHot.18 mph38%29.88 "Hg25 mi
3:00 PM92 °FHot.18 mph36%29.88 "Hg12 mi
2:00 PM87 °FWarm.17 mph43%29.90 "Hg19 mi
1:00 PM83 °FWarm.15 mph48%29.92 "Hg12 mi
12:00 PM81 °FWarm.15 mph50%29.93 "Hg25 mi
11:00 AM76 °FMild.15 mph55%29.93 "Hg12 mi
10:00 AM74 °FMild.14 mph59%29.94 "Hg16 mi
9:00 AM70 °FMild.13 mph64%29.95 "Hg11 mi
8:00 AM67 °FMild.14 mph71%29.94 "Hg6 mi
Weather by CustomWeather, © 2015

See weather overviewHow to use our weather pages